Location: Newark
(44.9000°N, 9.6000°E)
Time: 07:17:49
(UTC+00:00)

ISS - Pass Details

Date: 23 January 2020
Orbit: 415 x 422 km, 51.6° (Epoch: 22 February)

Event Time Altitude Azimuth Distance (km) Brightness Sun altitude
Rises 18:06:36 0° 247° (WSW) 2,371 1.5 -19.4°
Reaches altitude 10° 18:08:42 10° 251° (WSW) 1,508 0.2 -19.7°
Maximum altitude 18:12:04 64° 334° (NNW) 473 -3.5 -20.3°
Enters shadow 18:12:12 63° 348° (NNW) 476 -3.6 -20.3°
